Regional Weather Roundup
Issued by NWS

Home | Current Version | Previous Version | Text Only | Print | Product List | Glossary Off
Versions: 1 2 3 4 5 6 7 8 9 10 11 12 13 14 15 16 17 18 19 20 21 22 23 24 25 26 27 28 29 30 31 32 33 34 35 36 37 38 39 40 41 42 43 44 45 46 47 48 49 50

000
ASUS43 KDTX 231601
RWRMI
MICHIGAN HOURLY REGIONAL WEATHER ROUNDUP
NATIONAL WEATHER SERVICE DETROIT/PONTIAC MI
1200 PM EDT THU MAR 23 2017

NOTE: "FAIR" INDICATES FEW OR NO CLOUDS BELOW 12,000 FEET WITH NO
SIGNIFICANT WEATHER AND/OR OBSTRUCTION TO VISIBILITY.

MIZ047>049-052>055-059>063-066>070-074>076-081>083-231700-
SOUTHEAST LOWER MICHIGAN

CITY           SKY/WX    TMP DP  RH WIND       PRES   REMARKS
ADRIAN         SUNNY     34  11  38 SE14      30.50F WCI  25
ALMA           CLOUDY    37  19  49 SE13      30.48F WCI  28
ANN ARBOR      SUNNY     35  17  47 E9G18     30.50F WCI  28
BAD AXE        SUNNY     34  13  42 S16       30.52F WCI  23
CARO           SUNNY     37  11  34 SE10G16   30.50F WCI  30
DETROIT CITY   SUNNY     36  14  40 SE14      30.54F WCI  27
DETROIT        PTSUNNY   35  18  49 SE9       30.54F WCI  28
FLINT          SUNNY     36  10  34 SE14      30.50F WCI  27
GROSSE ILE     SUNNY     34  20  56 SE9       30.53F WCI  26
HILLSDALE      SUNNY     34  12  40 E13G18    30.45F WCI  25
HOWELL         SUNNY     36  12  37 S15       30.49S WCI  26

CITY           SKY/WX    TMP DP  RH WIND       PRES   REMARKS
JACKSON        SUNNY     36  13  38 SE14G20   30.47F WCI  27
LAMBERTVILLE   SUNNY     37  15  39 E9G16     30.50F WCI  31
LANSING        SUNNY     38  13  35 SE12      30.48F WCI  30
LAPEER         FAIR      36  12  37 SE13      30.50F WCI  27
MASON          SUNNY     35  19  51 SE10G17   30.48F WCI  27
MONROE         SUNNY     35  20  54 E12G17    30.52F WCI  26
MT. CLEMENS    PTSUNNY   34  19  52 E16       30.52F WCI  24
PONTIAC        PTSUNNY   34   6  31 SE15G23   30.49F WCI  24
PORT HOPE        N/A     35  17  47 S9G17     30.51F WCI  28
PORT HURON     SUNNY     36  10  35 S14       30.55F WCI  27
TRI CITIES     SUNNY     35  17  47 S10       30.49F WCI  27
MIDLAND        FAIR      35  18  50 SE7       30.48F WCI  29
TROY           SUNNY     36  10  34 SE9       30.54F WCI  29
SAGINAW HB     SUNNY     37  10  32 SE13      30.49F WCI  29
$$
MIZ043>046-050>051-056>058-064>065-071>073-077>080-231700-
SOUTHWEST LOWER MICHIGAN

CITY           SKY/WX    TMP DP  RH WIND       PRES   REMARKS
BATTLE CREEK   MOSUNNY   37  10  32 S12       30.45F WCI  29
BENTON HARBOR  CLOUDY    35  10  35 SE16      30.42F WCI  25
BIG RAPIDS     PTSUNNY   34  13  41 S13G22    30.43F WCI  25
COLDWATER      MOSUNNY   36   8  32 SE10G17   30.46F WCI  28
FREMONT        CLOUDY    36  11  36 SE10      30.43F WCI  28
HOLLAND        CLOUDY    38  14  37 SE12      30.42F WCI  30
GRAND RAPIDS   CLOUDY    36  15  42 SE12      30.44F WCI  28
IONIA          FAIR      34  16  48 SE14      30.46F WCI  25
KALAMAZOO      SUNNY     37   8  30 SE12      30.44F WCI  29
LUDINGTON      CLOUDY    35  16  46 SE9       30.40F WCI  27
MARSHALL       SUNNY     36  10  33 SE12G17   30.46F WCI  28
MOUNT PLEASANT MOSUNNY   35  17  48 SE10      30.47F WCI  28
MUSKEGON       CLOUDY    36  15  42 SE13      30.42F WCI  27
SOUTH HAVEN    CLOUDY    35   8  32 SE12G20   30.42F WCI  27
$$
MIZ016>042-231700-
NORTHERN LOWER MICHIGAN

CITY           SKY/WX    TMP DP  RH WIND       PRES   REMARKS
ALPENA         SUNNY     37  14  38 S14       30.47F WCI  28
BEAVER ISLAND  CLOUDY    33  19  55 S9        30.40F WCI  25
BELLAIRE       CLOUDY    37  11  34 S6        30.43F WCI  32
CADILLAC       CLOUDY    35  13  39 S12       30.39F WCI  27
CHARLEVOIX     CLOUDY    35  13  40 S7G17     30.45F WCI  29
FRANKFORT      CLOUDY    36  15  42 S12G17    30.40F WCI  27
GAYLORD        CLOUDY    35  10  35 S13       30.40F WCI  26
GRAYLING       MOSUNNY   37   9  30 S10G17    30.43F WCI  30
HARBOR SPRINGS CLOUDY    36  15  42 SW6       30.42F WCI  31
HOUGHTON LAKE  SUNNY     36   9  32 S13       30.44F WCI  27
MANISTEE       CLOUDY    36  14  40 S12G20    30.40F WCI  28
OSCODA         SUNNY     36  16  44 S12       30.49F WCI  28
PELLSTON       MOSUNNY   36  11  35 S9        30.43F WCI  29
ROGERS CITY    MOSUNNY   37  14  39 S9        30.45F WCI  30
TRAVERSE CITY  CLOUDY    37  12  35 S8        30.41F WCI  31
$$
MIZ007>008-015-231700-
EASTERN UPPER MICHIGAN

CITY           SKY/WX    TMP DP  RH WIND       PRES   REMARKS
KINROSS        PTSUNNY   33  12  41 S12       30.41F WCI  24
MACKINAC ISLAN CLOUDY    32  17  52 S5        30.42F WCI  28
NEWBERRY       MOSUNNY   32  21  64 S15       30.36F WCI  22
S. S. MARIE    CLOUDY    31  17  56 SE8       30.42F WCI  23
MUNISING         N/A     34  22  61 S15G22    30.30F WCI  24
$$
MIZ004>006-011>014-085-231700-
CENTRAL UPPER MICHIGAN

CITY           SKY/WX    TMP DP  RH WIND       PRES   REMARKS
MANISTIQUE     CLOUDY    34  28  80 S13G20    30.36F WCI  25
ESCANABA       CLOUDY    33  26  75 S8        30.35F WCI  26
MENOMINEE        N/A    N/A N/A N/A MISG        N/A
SAWYER-GWINN   CLOUDY    28  21  74 S21G28    30.27F WCI  15
$$
MIZ001>003-009>011-084-231700-
WESTERN UPPER MICHIGAN

CITY           SKY/WX    TMP DP  RH WIND       PRES   REMARKS
IRON MOUNTAIN  LGT SNOW  28  20  71 S8        30.26F WCI  20
HOUGHTON       CLOUDY    31  21  66 S16G23    30.17F WCI  20
COPPER HARBOR    N/A     32  21  64 S8G22     30.20F WCI  25
IRONWOOD       CLOUDY    32  19  58 SE12G17   30.11F WCI  23
$$

ABBREVIATIONS USED IN REMARKS
   TC - TEMPERATURE IN CELSIUS
  WCI - WIND CHILL INDEX
   HX - HEAT INDEX
  VSB - VISIBILITY




USA.gov is the U.S. government's official web portal to all federal, state and local government web resources and services.